Location: B?dimalle
(17.1788°N, 80.5377°E)
Time: 18:22:01
(UTC+00:00)

Transit 4A - All Passes

Search period start: 18 February 2026 00:00
Search period end: 28 February 2026 00:00
Orbit: 865 x 976 km, 66.8° (Epoch: 17 February)

Date Brightness Start Highest point End Pass type
(mag) Time Alt. Az. Time Alt. Az. Time Alt. Az.
18 Feb - 07:54:03 10° N 08:00:17 59° ENE 08:06:33 10° SSE daylight
18 Feb - 09:43:15 10° WNW 09:46:06 13° WSW 09:48:57 10° SW daylight
18 Feb - 21:01:23 10° SSW 21:07:08 78° ESE 21:13:00 10° NNE night (unlit)
19 Feb - 08:02:39 10° NNW 08:09:01 87° WSW 08:15:24 10° SSE daylight
19 Feb - 21:10:09 10° SSW 21:15:51 64° WNW 21:21:40 10° NNE night (unlit)
20 Feb - 06:27:35 10° NNE 06:31:17 16° ENE 06:35:00 10° E daylight
20 Feb - 08:11:33 10° NNW 08:17:43 54° WSW 08:23:53 10° S daylight
20 Feb - 19:34:57 10° SSE 19:38:43 18° ESE 19:42:31 10° ENE night (unlit)
20 Feb - 21:19:18 10° SW 21:24:37 38° WNW 21:30:01 10° N night (unlit)
21 Feb - 06:35:02 10° N 06:40:12 26° ENE 06:45:21 10° ESE daylight
21 Feb - 08:20:46 10° NW 08:26:22 33° WSW 08:31:58 10° S daylight
21 Feb - 19:42:20 10° SSE 19:47:19 30° ESE 19:52:21 10° NE night (unlit)
21 Feb - 21:28:57 10° WSW 21:33:27 23° WNW 21:38:00 10° NNW night (unlit)
22 Feb - 06:43:05 10° N 06:49:01 41° ENE 06:54:58 10° SE daylight
22 Feb - 08:30:31 10° WNW 08:34:59 20° WSW 08:39:27 10° SSW daylight
22 Feb - 19:50:22 10° S 19:55:57 52° ESE 20:01:36 10° NE night (unlit)
22 Feb - 21:39:30 10° W 21:42:22 14° WNW 21:45:14 10° NNW night (unlit)
23 Feb - 06:51:29 10° NNW 06:57:48 66° ENE 07:04:07 10° SSE daylight
23 Feb - 08:41:40 10° W 08:43:33 11° WSW 08:45:28 10° WSW daylight
23 Feb - 19:58:50 10° SSW 20:04:36 87° ESE 20:10:30 10° NNE night (unlit)
24 Feb - 05:18:44 10° NE 05:19:52 10° ENE 05:20:59 10° ENE daylight
24 Feb - 07:00:09 10° NNW 07:06:30 78° WSW 07:12:53 10° SSE daylight
24 Feb - 18:25:51 10° ESE 18:27:35 11° ESE 18:29:20 10° E night (unlit)
24 Feb - 20:07:40 10° SW 20:13:20 56° WNW 20:19:05 10° N night (unlit)
25 Feb - 05:24:40 10° NNE 05:28:50 18° ENE 05:33:00 10° ESE daylight
25 Feb - 07:09:08 10° NW 07:15:11 48° WSW 07:21:16 10° S daylight
25 Feb - 18:32:01 10° SSE 18:36:10 20° ESE 18:40:21 10° ENE night (unlit)
25 Feb - 20:16:56 10° SW 20:22:07 33° WNW 20:27:22 10° N night (unlit)
26 Feb - 05:32:19 10° N 05:37:43 29° ENE 05:43:07 10° ESE daylight
26 Feb - 07:18:28 10° NW 07:23:50 29° WSW 07:29:13 10° SSW daylight
26 Feb - 18:39:35 10° S 18:44:46 35° ESE 18:50:00 10° NE night (unlit)
26 Feb - 20:26:45 10° WSW 20:30:57 20° WNW 20:35:13 10° NNW night (unlit)
27 Feb - 05:40:28 10° N 05:46:32 46° ENE 05:52:36 10° SE daylight
27 Feb - 07:28:23 10° WNW 07:32:26 18° WSW 07:36:30 10° SW daylight
27 Feb - 18:47:44 10° S 18:53:24 59° ESE 18:59:09 10° NNE night (unlit)
27 Feb - 20:37:45 10° W 20:39:53 12° WNW 20:42:03 10° NW night (unlit)
